SWA1982 KLAX-KLAS

Flight info

Callsign SWA1982
Flight time 0h 42m
Altitude 25000
Route ORCKA5 MISEN RNDRZ4
Aircraft B738/M-SDE2E3FGHIRWXY/LB1

Departure

Time 2026-05-05 02:30
Airport Los Angeles International Airport (KLAX)

Arrival

Time 2026-05-05 03:13
Airport Harry Reid International Airport (KLAS)
Time Latitude Longitude Altitude Speed Heading
2026-05-05 02:17 33.94768 -118.40061 121 ft 0 kts 243°
2026-05-05 02:24 33.94770 -118.40058 121 ft 2 kts 243°
2026-05-05 02:24 33.94776 -118.40039 120 ft 3 kts 263°
2026-05-05 02:25 33.94776 -118.40019 121 ft 3 kts 308°
2026-05-05 02:25 33.94767 -118.40010 119 ft 2 kts
2026-05-05 02:25 33.94765 -118.40010 119 ft 1 kts
2026-05-05 02:27 33.94780 -118.40008 122 ft 4 kts
2026-05-05 02:27 33.94813 -118.40007 122 ft 5 kts 354°
2026-05-05 02:28 33.94841 -118.40028 124 ft 5 kts 304°
2026-05-05 02:28 33.94853 -118.40065 123 ft 5 kts 303°
2026-05-05 02:28 33.94882 -118.40080 122 ft 5 kts 358°
2026-05-05 02:28 33.94914 -118.40049 123 ft 8 kts 65°
2026-05-05 02:29 33.94930 -118.39987 124 ft 8 kts 78°
2026-05-05 02:29 33.94956 -118.39924 122 ft 9 kts 39°
2026-05-05 02:29 33.95013 -118.39923 121 ft 8 kts 341°
2026-05-05 02:29 33.95039 -118.39979 122 ft 8 kts 270°
2026-05-05 02:30 33.95027 -118.40094 125 ft 38 kts 263°
2026-05-05 02:30 33.94958 -118.40769 125 ft 122 kts 263°
2026-05-05 02:30 33.94821 -118.42017 400 ft 169 kts 260°
2026-05-05 02:30 33.94678 -118.43455 1487 ft 168 kts 263°
2026-05-05 02:31 33.94533 -118.44934 2301 ft 190 kts 263°
2026-05-05 02:31 33.94366 -118.46627 2546 ft 217 kts 262°
2026-05-05 02:31 33.94164 -118.48454 3172 ft 221 kts 261°
2026-05-05 02:31 33.93935 -118.50306 3829 ft 228 kts 261°
2026-05-05 02:32 33.93695 -118.52302 4184 ft 252 kts 262°
2026-05-05 02:32 33.93441 -118.54402 5087 ft 254 kts 257°
2026-05-05 02:32 33.92741 -118.56354 6013 ft 256 kts 241°
2026-05-05 02:32 33.91856 -118.58211 6969 ft 258 kts 241°
2026-05-05 02:33 33.90968 -118.60116 7764 ft 264 kts 241°
2026-05-05 02:33 33.90032 -118.62027 8631 ft 266 kts 231°
2026-05-05 02:33 33.88529 -118.63291 9527 ft 270 kts 198°
2026-05-05 02:33 33.86648 -118.63480 10367 ft 278 kts 176°
2026-05-05 02:34 33.84732 -118.62816 10807 ft 300 kts 155°
2026-05-05 02:34 33.82992 -118.61249 10979 ft 331 kts 136°
2026-05-05 02:34 33.81729 -118.58897 11002 ft 342 kts 114°
2026-05-05 02:34 33.81291 -118.56070 10987 ft 349 kts 89°
2026-05-05 02:35 33.81918 -118.53269 11020 ft 353 kts 60°
2026-05-05 02:35 33.83592 -118.51106 11522 ft 357 kts 32°
2026-05-05 02:35 33.85723 -118.49584 12421 ft 357 kts 28°
2026-05-05 02:35 33.87856 -118.48021 13209 ft 361 kts 31°
2026-05-05 02:36 33.89975 -118.46347 13927 ft 367 kts 32°
2026-05-05 02:36 33.92073 -118.44539 14572 ft 374 kts 39°
2026-05-05 02:36 33.93914 -118.42290 15228 ft 380 kts 51°
2026-05-05 02:36 33.95449 -118.39676 15900 ft 384 kts 56°
2026-05-05 02:37 33.96927 -118.36970 16550 ft 389 kts 57°
2026-05-05 02:37 33.98437 -118.34231 17165 ft 395 kts 57°
2026-05-05 02:37 33.99990 -118.31464 17801 ft 400 kts 56°
2026-05-05 02:37 34.01549 -118.28710 18425 ft 405 kts 56°
2026-05-05 02:38 34.03170 -118.25854 18981 ft 410 kts 56°
2026-05-05 02:38 34.04788 -118.23004 19569 ft 414 kts 56°
2026-05-05 02:38 34.06401 -118.20160 20107 ft 418 kts 56°
2026-05-05 02:38 34.08071 -118.17209 20620 ft 424 kts 56°
2026-05-05 02:39 34.09721 -118.14292 21139 ft 428 kts 56°
2026-05-05 02:39 34.11407 -118.11308 21690 ft 433 kts 56°
2026-05-05 02:39 34.13107 -118.08296 22304 ft 434 kts 56°
2026-05-05 02:39 34.14809 -118.05278 22954 ft 435 kts 56°
2026-05-05 02:40 34.16518 -118.02246 23563 ft 437 kts 56°
2026-05-05 02:40 34.18249 -117.99170 24104 ft 439 kts 56°
2026-05-05 02:40 34.19968 -117.96112 24619 ft 441 kts 56°
2026-05-05 02:40 34.21692 -117.93033 25020 ft 444 kts 56°
2026-05-05 02:41 34.23413 -117.89968 24981 ft 452 kts 56°
2026-05-05 02:41 34.25202 -117.86796 25065 ft 463 kts 56°
2026-05-05 02:41 34.27037 -117.83520 25043 ft 476 kts 56°
2026-05-05 02:41 34.28915 -117.80162 25038 ft 488 kts 57°
2026-05-05 02:42 34.30839 -117.76720 25021 ft 499 kts 57°
2026-05-05 02:42 34.32796 -117.73214 25020 ft 505 kts 57°
2026-05-05 02:42 34.34745 -117.69660 25011 ft 509 kts 57°
2026-05-05 02:42 34.36765 -117.66125 24985 ft 510 kts 55°
2026-05-05 02:43 34.38840 -117.62648 25004 ft 510 kts 54°
2026-05-05 02:43 34.40946 -117.59180 24976 ft 511 kts 54°
2026-05-05 02:43 34.43053 -117.55715 24976 ft 510 kts 54°
2026-05-05 02:43 34.45147 -117.52251 24974 ft 509 kts 54°
2026-05-05 02:44 34.47230 -117.48783 24999 ft 508 kts 54°
2026-05-05 02:44 34.49298 -117.45319 24979 ft 507 kts 54°
2026-05-05 02:44 34.51359 -117.41851 25002 ft 506 kts 54°
2026-05-05 02:44 34.53410 -117.38394 25003 ft 505 kts 54°
2026-05-05 02:45 34.55458 -117.34937 25009 ft 504 kts 54°
2026-05-05 02:45 34.57503 -117.31482 25012 ft 504 kts 54°
2026-05-05 02:45 34.59550 -117.28022 25016 ft 505 kts 54°
2026-05-05 02:45 34.61596 -117.24562 25005 ft 505 kts 54°
2026-05-05 02:46 34.63645 -117.21093 24991 ft 506 kts 54°
2026-05-05 02:46 34.65692 -117.17624 24931 ft 506 kts 54°
2026-05-05 02:46 34.67744 -117.14145 24919 ft 506 kts 54°
2026-05-05 02:46 34.69791 -117.10670 24926 ft 506 kts 55°
2026-05-05 02:47 34.71814 -117.07232 24916 ft 506 kts 55°
2026-05-05 02:47 34.73859 -117.03753 24917 ft 506 kts 55°
2026-05-05 02:47 34.75906 -117.00267 24919 ft 506 kts 55°
2026-05-05 02:47 34.77976 -116.96739 24924 ft 506 kts 55°
2026-05-05 02:48 34.80022 -116.93249 24925 ft 506 kts 55°
2026-05-05 02:48 34.82063 -116.89763 24921 ft 506 kts 55°
2026-05-05 02:48 34.84103 -116.86275 24919 ft 506 kts 55°
2026-05-05 02:48 34.86114 -116.82833 24923 ft 505 kts 55°
2026-05-05 02:49 34.88152 -116.79342 24927 ft 505 kts 55°
2026-05-05 02:49 34.90189 -116.75850 24926 ft 505 kts 55°
2026-05-05 02:49 34.92225 -116.72356 24929 ft 506 kts 55°
2026-05-05 02:49 34.94244 -116.68833 24920 ft 506 kts 56°
2026-05-05 02:50 34.96235 -116.65299 24917 ft 506 kts 56°
2026-05-05 02:50 34.98218 -116.61761 24911 ft 506 kts 56°
2026-05-05 02:50 35.00205 -116.58213 24906 ft 506 kts 56°
2026-05-05 02:50 35.02191 -116.54671 24887 ft 506 kts 56°
2026-05-05 02:51 35.04180 -116.51130 24885 ft 506 kts 56°
2026-05-05 02:51 35.06171 -116.47586 24884 ft 506 kts 56°
2026-05-05 02:51 35.08158 -116.44046 24875 ft 506 kts 56°
2026-05-05 02:51 35.10150 -116.40508 24877 ft 506 kts 55°
2026-05-05 02:52 35.12356 -116.37155 24528 ft 505 kts 47°
2026-05-05 02:52 35.14789 -116.34093 24181 ft 500 kts 44°
2026-05-05 02:52 35.17265 -116.31143 23786 ft 494 kts 44°
2026-05-05 02:52 35.19673 -116.28192 23367 ft 486 kts 45°
2026-05-05 02:53 35.21997 -116.25226 22861 ft 481 kts 46°
2026-05-05 02:53 35.24252 -116.22237 22509 ft 474 kts 48°
2026-05-05 02:53 35.26434 -116.19224 22126 ft 474 kts 49°
2026-05-05 02:53 35.28618 -116.16180 21702 ft 474 kts 48°
2026-05-05 02:54 35.30767 -116.13212 21295 ft 470 kts 48°
2026-05-05 02:54 35.32933 -116.10238 20888 ft 466 kts 48°
2026-05-05 02:54 35.35081 -116.07293 20495 ft 462 kts 48°
2026-05-05 02:54 35.37216 -116.04363 20092 ft 459 kts 48°
2026-05-05 02:55 35.39237 -116.01585 19701 ft 457 kts 49°
2026-05-05 02:55 35.41341 -115.98689 19300 ft 452 kts 49°
2026-05-05 02:55 35.43416 -115.95830 18916 ft 445 kts 49°
2026-05-05 02:55 35.45449 -115.93026 18598 ft 436 kts 49°
2026-05-05 02:56 35.47442 -115.90276 18234 ft 430 kts 49°
2026-05-05 02:56 35.49419 -115.87545 17815 ft 424 kts 49°
2026-05-05 02:56 35.51361 -115.84859 17408 ft 418 kts 49°
2026-05-05 02:56 35.53274 -115.82211 17022 ft 412 kts 49°
2026-05-05 02:57 35.55162 -115.79598 16655 ft 406 kts 49°
2026-05-05 02:57 35.57026 -115.77015 16277 ft 401 kts 49°
2026-05-05 02:57 35.58243 -115.75328 16089 ft 396 kts 49°
2026-05-05 02:57 35.60048 -115.72838 15921 ft 386 kts 48°
2026-05-05 02:58 35.61833 -115.70424 15725 ft 377 kts 48°
2026-05-05 02:58 35.63585 -115.68069 15542 ft 369 kts 48°
2026-05-05 02:58 35.65298 -115.65765 15352 ft 361 kts 48°
2026-05-05 02:58 35.66975 -115.63508 15167 ft 354 kts 49°
2026-05-05 02:59 35.68617 -115.61297 14990 ft 346 kts 49°
2026-05-05 02:59 35.70216 -115.59127 14827 ft 340 kts 49°
2026-05-05 02:59 35.71794 -115.56984 14671 ft 337 kts 49°
2026-05-05 02:59 35.73483 -115.55000 14480 ft 336 kts 33°
2026-05-05 03:00 35.75483 -115.53552 14354 ft 332 kts 28°
2026-05-05 03:00 35.77508 -115.52192 14177 ft 331 kts 28°
2026-05-05 03:00 35.79523 -115.50833 14023 ft 329 kts 28°
2026-05-05 03:00 35.81525 -115.49463 13848 ft 328 kts 28°
2026-05-05 03:01 35.83510 -115.48088 13663 ft 327 kts 29°
2026-05-05 03:01 35.85486 -115.46711 13494 ft 327 kts 29°
2026-05-05 03:01 35.87477 -115.45312 13313 ft 331 kts 29°
2026-05-05 03:01 35.89481 -115.43903 13143 ft 333 kts 29°
2026-05-05 03:02 35.91505 -115.42482 12875 ft 336 kts 29°
2026-05-05 03:02 35.93561 -115.41047 12473 ft 342 kts 29°
2026-05-05 03:02 35.95633 -115.39604 12077 ft 342 kts 29°
2026-05-05 03:02 35.97703 -115.38160 11679 ft 341 kts 30°
2026-05-05 03:03 35.99661 -115.36514 11268 ft 340 kts 47°
2026-05-05 03:03 36.00934 -115.34113 10956 ft 331 kts 72°
2026-05-05 03:03 36.01441 -115.31413 10728 ft 318 kts 92°
2026-05-05 03:03 36.01382 -115.28725 10517 ft 309 kts 98°
2026-05-05 03:04 36.01240 -115.26216 10297 ft 304 kts 98°
2026-05-05 03:04 36.01084 -115.23633 10085 ft 299 kts 98°
2026-05-05 03:04 36.00939 -115.21127 9991 ft 290 kts 98°
2026-05-05 03:04 36.00809 -115.18691 9955 ft 278 kts 98°
2026-05-05 03:05 36.00691 -115.16371 9884 ft 262 kts 98°
2026-05-05 03:05 36.00584 -115.14227 9801 ft 246 kts 98°
2026-05-05 03:05 36.00482 -115.12182 9705 ft 231 kts 99°
2026-05-05 03:05 36.00381 -115.10215 9370 ft 228 kts 99°
2026-05-05 03:06 36.00271 -115.08193 8843 ft 248 kts 99°
2026-05-05 03:06 36.00148 -115.05920 8344 ft 277 kts 99°
2026-05-05 03:06 36.00028 -115.03580 8096 ft 271 kts 97°
2026-05-05 03:06 35.99918 -115.01316 8008 ft 256 kts 97°
2026-05-05 03:07 35.99810 -114.99187 7993 ft 245 kts 98°
2026-05-05 03:07 35.99699 -114.97088 8003 ft 245 kts 98°
2026-05-05 03:07 35.99356 -114.95047 8034 ft 243 kts 105°
2026-05-05 03:07 35.99250 -114.92960 8324 ft 245 kts 89°
2026-05-05 03:08 35.99693 -114.90940 8756 ft 252 kts 64°
2026-05-05 03:08 36.00968 -114.89328 8593 ft 276 kts 28°
2026-05-05 03:08 36.02811 -114.88856 8137 ft 273 kts 351°
2026-05-05 03:08 36.04488 -114.89755 7669 ft 258 kts 315°
2026-05-05 03:09 36.05695 -114.91311 7167 ft 246 kts 314°
2026-05-05 03:09 36.07139 -114.92411 6502 ft 241 kts 325°
2026-05-05 03:09 36.08266 -114.93822 5746 ft 227 kts 289°
2026-05-05 03:09 36.08394 -114.95658 5006 ft 213 kts 250°
2026-05-05 03:10 36.07790 -114.97278 4499 ft 200 kts 244°
2026-05-05 03:10 36.07503 -114.98875 4239 ft 182 kts 263°
2026-05-05 03:10 36.07420 -115.00349 4026 ft 162 kts 262°
2026-05-05 03:10 36.07384 -115.01669 3821 ft 146 kts 265°
2026-05-05 03:11 36.07378 -115.02871 3618 ft 139 kts 265°
2026-05-05 03:11 36.07375 -115.04064 3456 ft 138 kts 265°
2026-05-05 03:11 36.07374 -115.05249 3279 ft 139 kts 265°
2026-05-05 03:11 36.07371 -115.06485 3095 ft 147 kts 265°
2026-05-05 03:12 36.07371 -115.07747 2892 ft 146 kts 264°
2026-05-05 03:12 36.07378 -115.08972 2707 ft 142 kts 264°
2026-05-05 03:12 36.07381 -115.10154 2519 ft 132 kts 260°
2026-05-05 03:12 36.07362 -115.11255 2314 ft 131 kts 265°
2026-05-05 03:13 36.07370 -115.12445 2127 ft 139 kts 264°
2026-05-05 03:13 36.07368 -115.13530 2072 ft 88 kts 269°
2026-05-05 03:13 36.07362 -115.14053 2082 ft 45 kts 270°
2026-05-05 03:13 36.07372 -115.14301 2087 ft 27 kts 281°